Print

CHIHRRCWA 000
TTAA00 KDVN 012004
HOURLY WEATHER ROUNDUP
NATIONAL WEATHER SERVICE QUAD CITIES IA IL
300 PM CDT WED OCT 01 2014

Note: "Fair" indicates few or no clouds below 12,000 feet with no
significant weather and/or obstructions to visibility.

* - These stations are not NWS stations...and not subject to NWS
quality control.  Some stations do not report weather such as fog.

...NORTHEAST IOWA..................................................

  
CITY           SKY/WX    TMP DP  RH WIND       PRES   REMARKS
DECORAH *      PTSUNNY   66  54  63 S9G18     29.80F                  
WATERLOO       PTSUNNY   70  59  68 S10       29.77F                  
OELWEIN *      SUNNY     72  57  60 S10G20    29.80F                  
INDEPENDENCE * PTSUNNY   72  59  64 S14       29.79F                  
DUBUQUE        NOT AVBL                                               

...SOUTHWEST AND SOUTH CENTRAL WISCONSIN...........................

  
CITY           SKY/WX    TMP DP  RH WIND       PRES   REMARKS
PRAIRIE DU CHI CLOUDY    67  52  57 SE8       29.82F                  
BOSCOBEL       PTSUNNY   70  54  56 SE3       29.83F                  
LONE ROCK      CLOUDY    71  53  52 SE12      29.84F                  
MINERAL POINT* CLOUDY    68  54  60 SE12      29.85F                  
MONROE *       CLOUDY    68  54  60 SE13      29.86S                  
JANESVILLE *   MOSUNNY   73  52  46 SE15      29.86F                  

...EAST CENTRAL IOWA...............................................

  
CITY           SKY/WX    TMP DP  RH WIND       PRES   REMARKS
MARSHALLTOWN   CLOUDY    69  61  75 S8        29.77S                  
NEWTON *       CLOUDY    70  63  78 S9        29.77F                  
VINTON *       SUNNY     72  59  63 S12       29.79F                  
CEDAR RAPIDS   NOT AVBL                                               
IOWA CITY      CLOUDY    65  60  84 SE8       29.83F                  
MONTICELLO *   CLOUDY    70  57  64 S14       29.82F                  
CLINTON *      CLOUDY    70  57  64 SE10      29.84F                  
DAVENPORT      NOT AVBL                                               

...NORTHWEST ILLINOIS..............................................

  
CITY           SKY/WX    TMP DP  RH WIND       PRES   REMARKS
FREEPORT *     CLOUDY    70  55  57 SE13      29.87S                  
ROCKFORD       PTSUNNY   73  54  51 SE12      29.87F                  
SAVANNA *      CLOUDY    73  55  53 SE10      29.83S                  
STERLING/R.F.* NOT AVBL                                               
ROCHELLE *     PTSUNNY   74  54  49 SE13G18   29.87F                  
MOLINE         CLOUDY    72  56  57 S15G24    29.81F                  
PERU *         PTSUNNY   76  57  50 SE13      29.87S                  

...SOUTHEAST IOWA AND NORTHEAST MISSOURI...........................

  
CITY           SKY/WX    TMP DP  RH WIND       PRES   REMARKS
KNOXVILLE *    CLOUDY    68  63  83 SE7       29.75F                  
OTTUMWA        PTSUNNY   66  62  87 S15G21    29.75F                  
FAIRFIELD *    LGT RAIN N/A N/A N/A S10       29.80F                  
WASHINGTON *   PTSUNNY   63  61  94 S13       29.81F                  
MT PLEASANT *  CLOUDY    65  61  87 S12       29.84R                  
BURLINGTON     LGT RAIN  64  62  93 S10       29.82F                  
KIRKSVILLE     LGT RAIN  66  65  96 SE14      29.79F FOG              

...WESTERN ILLINOIS................................................

  
CITY           SKY/WX    TMP DP  RH WIND       PRES   REMARKS
MACOMB *       RAIN      64  62  91 CALM      29.88F                  
GALESBURG *    LGT RAIN  69  59  70 S6        29.87R                  
PEORIA         CLOUDY    79  60  52 SE6       29.85F HX  80           
QUINCY         LGT RAIN  64  62  93 SE8       29.84F FOG              

END...
  

USA.gov is the U.S. government's official web portal to all federal, state and local government web resources and services.